SCP
0 0 0 0 0 0 0 0 0 0 0 0 0 0 0 0 0 0 0 0 0 0 0 0 0 0 0 0 0 0 0 0 0 0 0 0 0 0 0 0 0 0 0
0 0 0 0 0 0 0 0 0 0 0 0 0 0 0 0 0 0 0 0 0 0 0 0 0 0 0 0 0 0 0 0 0 0 0 0 0 0 0 0 0 0 0
0 0 0 0 0 0 0 0 0 0 0 0 0 0 0 0 0 0 0 0 0 0 0 0 0 0 0 0 0 0 0 0 0 0 0 0 0 0 0 0 0 0 0
0 0 0 0 0 0 0 0 0 0 0 0 0 0 0 0 0 0 0 0 0 0 0 0 0 0 0 0 0 0 0 0 0 0 0 0 0 0 0 0 0 0 0
0 0 0 0 0 0 0 0 0 0 0 0 0 0 0 0 0 0 0 0 0 0 0 0 0 0 0 0 0 0 0 0 0 0 0 0 0 0 0 0 0 0 0
0 0 0 0 0 0 0 0 0 0 0 0 0 0 0 0 0 0 0 0 0 0 0 0 0 0 0 0 0 0 0 0 0 0 0 0 0 0 0 0 0 0 0
0 0 0 0 0 0 0 0 0 0 0 0 0 0 0 0 0 0 0 0 0 0 0 0 0 0 0 0 0 0 0 0 0 0 0 0 0 0 0 0 0 0 0
0 0 0 0 0 0 0 0 0 0 0 0 0 0 0 0 0 0 0 0 0 0 0 0 0 0 0 0 0 0 0 0 0 0 0 0 0 0 0 0 0 0 0
0 0 0 0 0 0 0 0 0 0 0 0 0 0 0 0 0 0 0 0 0 0 0 0 0 0 0 0 0 0 0 0 0 0 0 0 0 0 0 0 0 0 0
0 0 0 0 0 0 0 0 0 0 0 0 0 0 0 0 0 0 0 0 0 0 0 0 0 0 0 0 0 0 0 0 0 0 0 0 0 0 0 0 0 0 0
0 0 0 0 0 0 0 0 0 0 0 0 0 0 0 0 0 0 0 0 0 0 0 0 0 0 0 0 0 0 0 0 0 0 0 0 0 0 0 0 0 0 0
0 0 0 0 0 0 0 0 0 0 0 0 0 0 0 0 0 0 0 0 0 0 0 0 0 0 0 0 0 0 0 0 0 0 0 0 0 0 0 0 0 0 0
0 0 0 0 0 0 0 0 0 0 0 0 0 0 0 0 0 0 0 0 0 0 0 0 0 0 0 0 0 0 0 0 0 0 0 0 0 0 0 0 0 0 0
0 0 0 0 0 0 0 0 0 0 0 0 0 0 0 0 0 0 0 0 0 0 0 0 0 0 0 0 0 0 0 0 0 0 0 0 0 0 0 0 0 0 0
0 0 0 0 0 0 0 0 0 0 0 0 0 0 0 0 0 0 0 0 0 0 0 0 0 0 0 0 0 0 0 0 0 0 0 0 0 0 0 0 0 0 0
0 0 0 0 0 0 0 0 0 0 0 0 0 0 0 0 0 0 0 0 0 0 0 0 0 0 0 0 0 0 0 0 0 0 0 0 0 0 0 0 0 0 0
0 0 0 0 0 0 0 0 0 0 0 0 0 0 0 0 0 0 0 0 0 0 0 0 0 0 0 0 0 0 0 0 0 0 0 0 0 0 0 0 0 0 0
0 0 0 0 0 0 0 0 0 0 0 0 0 0 0 0 0 0 0 0 0 0 0 0 0 0 0 0 0 0 0 0 0 0 0 0 0 0 0 0 0 0 0
0 0 0 0 0 0 0 0 0 0 0 0 0 0 0 0 0 0 0 0 0 0 0 0 0 0 0 0 0 0 0 0 0 0 0 0 0 0 0 0 0 0 0
0 0 0 0 0 0 0 0 0 0 0 0 0 0 0 0 0 0 0 0 0 0 0 0 0 0 0 0 0 0 0 0 0 0 0 0 0 0 0 0 0 0 0
0 0 0 0 0 0 0 0 0 0 0 0 0 0 0 0 0 0 0 0 0 0 0 0 0 0 0 0 0 0 0 0 0 0 0 0 0 0 0 0 0 0 0
0 0 0 0 0 0 0 0 0 0 0 0 0 0 0 0 0 0 0 0 0 0 0 0 0 0 0 0 0 0 0 0 0 0 0 0 0 0 0 0 0 0 0
0 0 0 0 0 0 0 0 0 0 0 0 0 0 0 0 0 0 0 0 0 0 0 0 0 0 0 0 0 0 0 0 0 0 0 0 0 0 0 0 0 0 0
0 0 0 0 0 0 0 0 0 0 0 0 0 0 0 0 0 0 0 0 0 0 0 0 0 0 0 0 0 0 0 0 0 0 0 0 0 0 0 0 0 0 0
0 0 0 0 0 0 0 0 0 0 0 0 0 0 0 0 0 0 0 0 0 0 0 0 0 0 0 0 0 0 0 0 0 0 0 0 0 0 0 0 0 0 0
0 0 0 0 0 0 0 0 0 0 0 0 0 0 0 0 0 0 0 0 0 0 0 0 0 0 0 0 0 0 0 0 0 0 0 0 0 0 0 0 0 0 0
Wind_Speed_500mb
57 51 46 41 37 28 29 31 32 31 30 26 22 22 22 21 22 22 20 22 20 23 17 20 24 29 27 26 17 20 23 19 21 20 17 13 8 13 19 19 16 22 16
59 51 47 45 38 31 27 32 33 35 33 31 35 30 29 26 29 27 25 27 22 30 29 22 28 25 31 26 19 26 28 19 25 24 17 15 15 16 19 24 21 21 25
60 54 50 49 43 34 27 28 32 34 33 31 33 30 28 26 33 31 32 26 17 25 38 31 26 30 31 26 24 31 36 26 26 25 24 22 24 18 21 21 23 23 32
63 57 52 53 43 36 32 30 33 37 35 33 31 29 30 29 28 27 30 29 20 23 31 39 35 35 35 33 31 32 39 37 31 32 35 32 29 21 22 19 22 31 35
62 60 58 52 46 42 39 36 37 41 39 34 31 27 26 23 29 33 31 26 31 27 28 34 43 41 43 39 40 38 37 41 42 37 47 46 31 24 25 22 26 37 32
61 62 66 52 53 48 45 40 40 42 43 36 32 26 24 26 35 37 34 38 40 36 32 33 37 41 40 44 39 33 38 38 40 42 57 44 38 29 29 26 33 32 29
67 66 54 59 52 52 47 42 40 45 46 40 37 35 37 39 42 41 44 44 47 44 44 43 39 39 39 42 39 36 34 35 36 45 48 58 38 35 32 34 35 38 35
68 70 68 63 56 57 50 46 45 49 48 47 50 44 44 47 48 47 49 52 55 57 53 52 43 41 40 42 40 38 34 33 37 47 53 46 41 40 33 32 36 39 34
72 68 69 70 63 62 56 51 49 54 57 56 57 44 26 30 35 61 63 61 62 62 62 58 52 46 43 44 43 42 41 46 49 52 50 46 48 46 36 40 42 38 33
69 66 72 73 65 67 64 60 53 58 60 64 62 72 55 29 29 20 55 73 72 71 62 61 57 54 52 51 49 44 46 54 62 58 59 54 46 39 43 43 41 33 36
66 63 73 66 73 75 76 70 63 62 66 65 68 75 77 72 48 40 33 41 50 60 67 66 64 60 59 56 55 56 57 63 68 72 57 47 43 41 41 34 33 37 33
61 59 60 66 75 81 91 80 70 68 70 69 69 75 80 82 83 68 54 49 49 47 52 60 68 66 64 63 63 65 66 65 64 60 56 48 37 37 30 32 36 35 33
54 45 64 72 77 90 92 76 84 74 70 75 73 79 81 82 79 77 78 68 61 59 52 52 59 67 68 68 67 65 61 55 51 48 43 38 33 28 31 38 36 33 35
52 49 57 57 63 66 81 86 87 90 79 79 76 79 83 86 84 78 77 69 70 75 72 66 63 66 68 68 61 55 50 47 42 36 31 22 24 27 33 31 30 33 35
49 59 64 68 78 76 80 81 86 94 89 88 78 80 81 84 83 82 84 88 90 56 77 78 77 68 67 64 56 48 46 37 29 21 18 20 26 33 29 29 32 35 37
48 51 44 33 63 75 74 72 97 91 94 89 76 80 88 79 84 83 88 94 98 92 49 68 61 54 54 50 44 36 28 23 11 14 20 24 27 26 28 31 35 36 38
37 39 38 43 48 53 65 74 74 96 95 83 79 82 86 91 88 85 86 76 65 63 62 31 40 30 25 26 24 23 19 12 17 16 19 24 24 27 30 33 35 38 40
15 12 13 17 25 32 39 45 49 52 56 51 55 58 58 55 41 27 25 22 16 14 19 27 28 26 23 23 15 10 14 14 16 18 21 24 24 27 30 33 36 36 38
18 18 17 16 11 9 9 13 14 10 6 10 14 17 29 32 38 31 19 15 14 9 10 9 19 19 17 16 15 13 15 20 18 20 19 20 23 26 27 32 36 39 42
43 45 45 49 44 43 39 36 32 32 34 40 45 43 30 21 17 14 11 10 14 13 14 11 13 17 19 17 18 20 15 13 15 16 19 21 22 27 32 36 38 40 42
50 47 46 47 49 48 47 40 37 33 28 30 28 22 15 16 16 12 11 11 11 11 11 15 19 21 19 18 17 13 12 11 13 16 17 20 28 31 33 36 37 40 42
42 38 36 32 24 29 30 28 30 29 24 21 20 18 17 13 12 12 13 14 15 16 15 14 16 16 16 14 11 10 10 11 13 15 21 21 24 28 29 27 34 41 44
38 35 33 32 33 34 33 30 26 23 21 21 20 20 19 18 16 14 13 12 12 13 12 12 9 9 8 6 7 9 12 15 18 21 26 29 28 23 24 35 41 41 39
40 40 39 37 37 40 34 34 29 25 25 24 24 23 20 18 16 14 12 10 10 10 9 8 5 2 2 6 11 13 16 18 21 23 28 31 31 37 41 41 31 29 19
36 37 36 33 33 36 31 31 27 24 22 23 20 19 16 14 12 10 7 6 6 5 4 3 4 5 8 12 16 18 18 20 23 27 31 30 40 49 51 36 23 13 26
35 34 31 30 30 29 26 24 22 21 18 17 15 12 11 8 7 6 6 5 5 5 5 7 8 11 13 16 19 20 22 24 25 27 26 42 44 45 34 35 20 44 49
Wind_Direction_500mb
205 208 213 217 228 230 228 214 207 206 207 210 210 207 217 206 211 227 241 245 231 214 204 218 204 205 214 209 224 214 204 217 215 217 229 232 269 324 341 335 329 331 326
208 206 214 217 233 232 229 220 210 211 211 214 215 222 225 217 215 230 243 244 236 215 213 210 205 207 210 214 227 211 214 220 221 223 233 255 282 305 326 324 308 319 326
212 210 213 217 227 227 232 223 212 213 215 222 224 227 226 226 218 232 242 256 244 223 213 213 205 205 202 217 220 224 221 231 224 230 246 251 267 282 312 325 301 311 324
211 206 216 220 225 231 233 234 223 220 219 222 228 230 230 231 221 221 232 238 257 241 223 215 215 215 214 216 218 230 229 232 238 233 241 245 247 274 310 304 303 310 315
211 210 219 221 233 234 236 235 227 222 222 222 227 233 229 229 223 230 240 241 244 242 234 224 225 230 226 224 229 231 233 235 238 243 242 236 241 269 302 301 306 299 299
209 212 220 225 229 227 231 232 230 224 225 227 225 227 223 227 228 235 238 243 244 237 246 235 231 233 229 228 233 232 235 237 235 235 215 232 247 282 294 294 294 290 285
213 216 218 224 230 229 234 233 232 225 224 222 216 220 229 234 233 234 238 240 242 246 249 248 237 236 229 230 232 239 242 246 234 230 241 251 260 279 282 288 286 286 284
216 220 223 228 236 231 229 232 233 226 225 219 215 213 224 229 234 240 240 241 243 248 252 253 252 240 235 234 234 238 240 245 244 244 236 252 265 258 266 276 279 282 277
224 222 229 227 237 234 234 236 237 228 226 225 219 209 208 226 234 236 235 237 241 246 253 249 251 248 238 237 239 239 238 239 241 233 239 251 254 262 262 280 278 277 283
217 220 227 230 236 238 239 241 239 234 229 229 223 220 227 233 211 230 235 237 241 244 246 241 249 251 248 243 242 246 246 244 231 227 245 244 254 257 275 277 274 279 284
220 231 233 233 236 240 242 246 242 237 233 234 231 225 227 234 241 245 248 250 246 243 241 243 249 249 249 250 250 252 246 234 234 243 246 250 258 267 275 272 278 285 280
221 226 230 242 240 245 242 243 244 247 240 239 240 235 234 231 234 235 243 250 250 251 249 246 244 245 246 250 250 249 247 242 240 245 250 254 253 265 266 273 282 273 279
237 234 239 246 245 243 245 239 251 247 240 241 243 240 240 239 243 245 245 247 251 252 249 250 249 245 248 250 247 248 249 248 247 246 246 247 256 257 265 278 273 279 282
240 247 258 254 255 251 241 242 253 261 246 242 246 245 244 243 244 246 248 247 244 249 251 250 251 247 242 242 244 245 248 249 249 238 239 243 262 279 273 271 277 283 288
235 241 244 249 259 265 247 243 250 251 253 243 244 249 247 249 250 250 253 255 256 243 242 243 242 238 238 240 241 240 238 235 231 230 257 278 288 272 270 278 286 291 292
250 241 248 264 244 242 249 252 244 247 246 245 247 250 253 249 254 255 255 256 253 249 236 235 225 228 226 227 229 225 225 223 235 281 274 276 262 270 282 288 289 291 289
239 246 249 247 240 239 241 243 236 237 233 237 245 252 255 240 242 248 251 248 255 257 256 231 225 223 206 196 192 191 191 247 255 269 259 260 272 282 285 287 289 293 296
211 219 233 240 252 253 257 257 253 234 227 233 232 226 232 225 229 233 227 215 175 155 214 184 169 167 165 152 169 207 229 249 260 249 255 264 274 282 291 292 295 295 294
124 118 116 112 117 134 154 162 163 179 184 203 196 161 132 123 124 119 112 106 102 107 119 134 154 163 173 200 218 228 250 232 236 251 269 281 287 290 295 295 296 296 292
102 100 101 99 95 90 92 96 100 106 112 117 120 115 101 103 104 99 91 100 113 114 111 118 143 173 197 207 228 224 217 233 252 271 282 286 292 297 301 298 298 298 294
98 98 100 99 99 97 89 88 93 90 90 111 125 123 111 103 93 93 95 96 112 132 153 184 194 201 201 190 189 201 225 252 274 283 285 295 300 302 299 302 301 297 295
98 99 99 97 99 96 93 91 95 97 104 111 120 118 115 97 84 98 113 118 118 108 115 125 138 148 162 177 194 213 242 267 291 287 290 301 302 305 305 306 303 301 299
94 93 95 97 100 97 93 92 91 99 103 100 97 91 101 102 99 96 101 103 104 106 112 121 133 150 167 201 241 268 282 289 299 303 309 315 317 317 316 311 309 307 302
94 93 92 95 100 96 93 89 88 91 96 100 102 101 97 98 98 95 94 103 109 115 124 125 127 156 248 282 286 293 298 304 306 308 309 311 316 320 325 325 322 314 312
88 88 86 88 85 89 90 92 89 88 96 96 95 97 99 97 97 95 95 81 79 82 73 37 355 318 308 296 292 291 289 292 300 311 315 314 316 322 328 330 324 315 307
83 85 89 85 83 84 82 78 80 79 75 82 83 83 79 70 58 46 24 24 4 356 337 313 301 293 288 284 286 286 290 295 306 314 304 315 320 327 324 315 299 301 310
Wind_Speed_850mb
57 51 46 41 37 28 29 31 32 31 30 26 22 22 22 21 22 22 20 22 20 23 17 20 24 29 27 26 17 20 23 19 21 20 17 13 8 13 19 19 16 22 16
59 51 47 45 38 31 27 32 33 35 33 31 35 30 29 26 29 27 25 27 22 30 29 22 28 25 31 26 19 26 28 19 25 24 17 15 15 16 19 24 21 21 25
60 54 50 49 43 34 27 28 32 34 33 31 33 30 28 26 33 31 32 26 17 25 38 31 26 30 31 26 24 31 36 26 26 25 24 22 24 18 21 21 23 23 32
63 57 52 53 43 36 32 30 33 37 35 33 31 29 30 29 28 27 30 29 20 23 31 39 35 35 35 33 31 32 39 37 31 32 35 32 29 21 22 19 22 31 35
62 60 58 52 46 42 39 36 37 41 39 34 31 27 26 23 29 33 31 26 31 27 28 34 43 41 43 39 40 38 37 41 42 37 47 46 31 24 25 22 26 37 32
61 62 66 52 53 48 45 40 40 42 43 36 32 26 24 26 35 37 34 38 40 36 32 33 37 41 40 44 39 33 38 38 40 42 57 44 38 29 29 26 33 32 29
67 66 54 59 52 52 47 42 40 45 46 40 37 35 37 39 42 41 44 44 47 44 44 43 39 39 39 42 39 36 34 35 36 45 48 58 38 35 32 34 35 38 35
68 70 68 63 56 57 50 46 45 49 48 47 50 44 44 47 48 47 49 52 55 57 53 52 43 41 40 42 40 38 34 33 37 47 53 46 41 40 33 32 36 39 34
72 68 69 70 63 62 56 51 49 54 57 56 57 44 26 30 35 61 63 61 62 62 62 58 52 46 43 44 43 42 41 46 49 52 50 46 48 46 36 40 42 38 33
69 66 72 73 65 67 64 60 53 58 60 64 62 72 55 29 29 20 55 73 72 71 62 61 57 54 52 51 49 44 46 54 62 58 59 54 46 39 43 43 41 33 36
66 63 73 66 73 75 76 70 63 62 66 65 68 75 77 72 48 40 33 41 50 60 67 66 64 60 59 56 55 56 57 63 68 72 57 47 43 41 41 34 33 37 33
61 59 60 66 75 81 91 80 70 68 70 69 69 75 80 82 83 68 54 49 49 47 52 60 68 66 64 63 63 65 66 65 64 60 56 48 37 37 30 32 36 35 33
54 45 64 72 77 90 92 76 84 74 70 75 73 79 81 82 79 77 78 68 61 59 52 52 59 67 68 68 67 65 61 55 51 48 43 38 33 28 31 38 36 33 35
52 49 57 57 63 66 81 86 87 90 79 79 76 79 83 86 84 78 77 69 70 75 72 66 63 66 68 68 61 55 50 47 42 36 31 22 24 27 33 31 30 33 35
49 59 64 68 78 76 80 81 86 94 89 88 78 80 81 84 83 82 84 88 90 56 77 78 77 68 67 64 56 48 46 37 29 21 18 20 26 33 29 29 32 35 37
48 51 44 33 63 75 74 72 97 91 94 89 76 80 88 79 84 83 88 94 98 92 49 68 61 54 54 50 44 36 28 23 11 14 20 24 27 26 28 31 35 36 38
37 39 38 43 48 53 65 74 74 96 95 83 79 82 86 91 88 85 86 76 65 63 62 31 40 30 25 26 24 23 19 12 17 16 19 24 24 27 30 33 35 38 40
15 12 13 17 25 32 39 45 49 52 56 51 55 58 58 55 41 27 25 22 16 14 19 27 28 26 23 23 15 10 14 14 16 18 21 24 24 27 30 33 36 36 38
18 18 17 16 11 9 9 13 14 10 6 10 14 17 29 32 38 31 19 15 14 9 10 9 19 19 17 16 15 13 15 20 18 20 19 20 23 26 27 32 36 39 42
43 45 45 49 44 43 39 36 32 32 34 40 45 43 30 21 17 14 11 10 14 13 14 11 13 17 19 17 18 20 15 13 15 16 19 21 22 27 32 36 38 40 42
50 47 46 47 49 48 47 40 37 33 28 30 28 22 15 16 16 12 11 11 11 11 11 15 19 21 19 18 17 13 12 11 13 16 17 20 28 31 33 36 37 40 42
42 38 36 32 24 29 30 28 30 29 24 21 20 18 17 13 12 12 13 14 15 16 15 14 16 16 16 14 11 10 10 11 13 15 21 21 24 28 29 27 34 41 44
38 35 33 32 33 34 33 30 26 23 21 21 20 20 19 18 16 14 13 12 12 13 12 12 9 9 8 6 7 9 12 15 18 21 26 29 28 23 24 35 41 41 39
40 40 39 37 37 40 34 34 29 25 25 24 24 23 20 18 16 14 12 10 10 10 9 8 5 2 2 6 11 13 16 18 21 23 28 31 31 37 41 41 31 29 19
36 37 36 33 33 36 31 31 27 24 22 23 20 19 16 14 12 10 7 6 6 5 4 3 4 5 8 12 16 18 18 20 23 27 31 30 40 49 51 36 23 13 26
35 34 31 30 30 29 26 24 22 21 18 17 15 12 11 8 7 6 6 5 5 5 5 7 8 11 13 16 19 20 22 24 25 27 26 42 44 45 34 35 20 44 49
Wind_Direction_850mb
205 208 213 217 228 230 228 214 207 206 207 210 210 207 217 206 211 227 241 245 231 214 204 218 204 205 214 209 224 214 204 217 215 217 229 232 269 324 341 335 329 331 326
208 206 214 217 233 232 229 220 210 211 211 214 215 222 225 217 215 230 243 244 236 215 213 210 205 207 210 214 227 211 214 220 221 223 233 255 282 305 326 324 308 319 326
212 210 213 217 227 227 232 223 212 213 215 222 224 227 226 226 218 232 242 256 244 223 213 213 205 205 202 217 220 224 221 231 224 230 246 251 267 282 312 325 301 311 324
211 206 216 220 225 231 233 234 223 220 219 222 228 230 230 231 221 221 232 238 257 241 223 215 215 215 214 216 218 230 229 232 238 233 241 245 247 274 310 304 303 310 315
211 210 219 221 233 234 236 235 227 222 222 222 227 233 229 229 223 230 240 241 244 242 234 224 225 230 226 224 229 231 233 235 238 243 242 236 241 269 302 301 306 299 299
209 212 220 225 229 227 231 232 230 224 225 227 225 227 223 227 228 235 238 243 244 237 246 235 231 233 229 228 233 232 235 237 235 235 215 232 247 282 294 294 294 290 285
213 216 218 224 230 229 234 233 232 225 224 222 216 220 229 234 233 234 238 240 242 246 249 248 237 236 229 230 232 239 242 246 234 230 241 251 260 279 282 288 286 286 284
216 220 223 228 236 231 229 232 233 226 225 219 215 213 224 229 234 240 240 241 243 248 252 253 252 240 235 234 234 238 240 245 244 244 236 252 265 258 266 276 279 282 277
224 222 229 227 237 234 234 236 237 228 226 225 219 209 208 226 234 236 235 237 241 246 253 249 251 248 238 237 239 239 238 239 241 233 239 251 254 262 262 280 278 277 283
217 220 227 230 236 238 239 241 239 234 229 229 223 220 227 233 211 230 235 237 241 244 246 241 249 251 248 243 242 246 246 244 231 227 245 244 254 257 275 277 274 279 284
220 231 233 233 236 240 242 246 242 237 233 234 231 225 227 234 241 245 248 250 246 243 241 243 249 249 249 250 250 252 246 234 234 243 246 250 258 267 275 272 278 285 280
221 226 230 242 240 245 242 243 244 247 240 239 240 235 234 231 234 235 243 250 250 251 249 246 244 245 246 250 250 249 247 242 240 245 250 254 253 265 266 273 282 273 279
237 234 239 246 245 243 245 239 251 247 240 241 243 240 240 239 243 245 245 247 251 252 249 250 249 245 248 250 247 248 249 248 247 246 246 247 256 257 265 278 273 279 282
240 247 258 254 255 251 241 242 253 261 246 242 246 245 244 243 244 246 248 247 244 249 251 250 251 247 242 242 244 245 248 249 249 238 239 243 262 279 273 271 277 283 288
235 241 244 249 259 265 247 243 250 251 253 243 244 249 247 249 250 250 253 255 256 243 242 243 242 238 238 240 241 240 238 235 231 230 257 278 288 272 270 278 286 291 292
250 241 248 264 244 242 249 252 244 247 246 245 247 250 253 249 254 255 255 256 253 249 236 235 225 228 226 227 229 225 225 223 235 281 274 276 262 270 282 288 289 291 289
239 246 249 247 240 239 241 243 236 237 233 237 245 252 255 240 242 248 251 248 255 257 256 231 225 223 206 196 192 191 191 247 255 269 259 260 272 282 285 287 289 293 296
211 219 233 240 252 253 257 257 253 234 227 233 232 226 232 225 229 233 227 215 175 155 214 184 169 167 165 152 169 207 229 249 260 249 255 264 274 282 291 292 295 295 294
124 118 116 112 117 134 154 162 163 179 184 203 196 161 132 123 124 119 112 106 102 107 119 134 154 163 173 200 218 228 250 232 236 251 269 281 287 290 295 295 296 296 292
102 100 101 99 95 90 92 96 100 106 112 117 120 115 101 103 104 99 91 100 113 114 111 118 143 173 197 207 228 224 217 233 252 271 282 286 292 297 301 298 298 298 294
98 98 100 99 99 97 89 88 93 90 90 111 125 123 111 103 93 93 95 96 112 132 153 184 194 201 201 190 189 201 225 252 274 283 285 295 300 302 299 302 301 297 295
98 99 99 97 99 96 93 91 95 97 104 111 120 118 115 97 84 98 113 118 118 108 115 125 138 148 162 177 194 213 242 267 291 287 290 301 302 305 305 306 303 301 299
94 93 95 97 100 97 93 92 91 99 103 100 97 91 101 102 99 96 101 103 104 106 112 121 133 150 167 201 241 268 282 289 299 303 309 315 317 317 316 311 309 307 302
94 93 92 95 100 96 93 89 88 91 96 100 102 101 97 98 98 95 94 103 109 115 124 125 127 156 248 282 286 293 298 304 306 308 309 311 316 320 325 325 322 314 312
88 88 86 88 85 89 90 92 89 88 96 96 95 97 99 97 97 95 95 81 79 82 73 37 355 318 308 296 292 291 289 292 300 311 315 314 316 322 328 330 324 315 307
83 85 89 85 83 84 82 78 80 79 75 82 83 83 79 70 58 46 24 24 4 356 337 313 301 293 288 284 286 286 290 295 306 314 304 315 320 327 324 315 299 301 310